HST 1 20580U 90037B 25341.24043269 .00011505 00000+0 40173-3 0 9998 2 20580 28.4700 309.9169 0001929 174.2687 185.7931 15.27934350759151 POLAR 1 23802U 96013A 25335.86121764 .00000137 00000+0 00000+0 0 9996 2 23802 79.6185 229.2704 6274469 215.7594 78.7365 1.29846141142290 SWAS 1 25560U 98071A 25340.36276423 .00007309 00000+0 48169-3 0 9999 2 25560 69.8974 4.1796 0007212 223.7623 136.2969 15.07874940468185 CXO 1 25867U 99040B 25343.97250032 .00000473 00000+0 00000+0 0 9997 2 25867 53.0331 122.5434 8145105 310.8820 359.9559 0.37805720 16602 XMM-NEWTON 1 25989U 99066A 25342.87856987 .00000003 00000+0 00000+0 0 9998 2 25989 65.4511 285.4947 4744305 68.2735 0.2993 0.50133255 22050 TERRA 1 25994U 99068A 25341.32452640 .00000985 00000+0 21017-3 0 9997 2 25994 97.9756 33.2076 0003509 108.8220 318.6631 14.60943335381595 CLUSTER II-FM7 (SAMBA) 1 26410U 00041A 25343.43765158 .00002343 00000+0 00000+0 0 9994 2 26410 147.5823 24.8959 8753947 240.5883 359.9553 0.44815248 19460 CLUSTER II-FM8 (TANGO) 1 26464U 00045B 25342.01689451 .00002625 00000+0 00000+0 0 9994 2 26464 147.8405 25.3442 8756376 240.8888 0.0021 0.44416966 19455 ODIN 1 26702U 01007A 25341.28892090 .00058333 00000+0 10060-2 0 9998 2 26702 97.4224 9.0433 0004889 121.8640 238.3088 15.50833666359481 TIMED 1 26998U 01055B 25340.95484261 .00003189 00000+0 29764-3 0 9999 2 26998 74.0700 261.9059 0001358 224.3917 135.7158 14.94656450302099 CORIOLIS 1 27640U 03001A 25341.24614700 .00000235 00000+0 13115-3 0 9995 2 27640 98.7141 346.0660 0014774 48.6737 311.5708 14.19868990186986 SORCE 1 27651U 03004A 25341.25328838 .00006118 00000+0 46583-3 0 9996 2 27651 39.9912 275.6345 0015197 113.5941 246.6450 15.02218665243018 MOST 1 27843U 03031D 25341.23619767 .00000188 00000+0 10622-3 0 9997 2 27843 98.7066 346.6361 0010958 87.2715 272.9716 14.21267918163447 SCISAT 1 1 27858U 03036A 25341.01746291 .00001333 00000+0 17617-3 0 9991 2 27858 73.9292 193.0747 0008457 295.6894 64.3408 14.81105909202997 SWIFT 1 28485U 04047A 25340.94761442 .00054256 00000+0 91230-3 0 9992 2 28485 20.5525 207.9920 0003339 186.0051 174.0352 15.50003296156810 HINODE (SOLAR-B) 1 29479U 06041A 25341.30603523 .00001450 00000+0 25930-3 0 9990 2 29479 98.0652 355.2276 0017674 172.7269 187.4196 14.68288917 26718 SHIJIAN-6 02A (SJ-6 02A) 1 29505U 06046A 25341.24056938 .00010928 00000+0 60212-3 0 9992 2 29505 97.6623 15.9474 0004837 84.6332 275.5451 15.14175514 43194 SHIJIAN-6 02B (SJ-6 02B) 1 29506U 06046B 25341.28639135 .00003132 00000+0 25287-3 0 9995 2 29506 97.6873 6.9351 0014550 355.0881 5.0198 15.00502195 41953 FGRST (GLAST) 1 33053U 08029A 25341.03525837 .00005365 00000+0 21067-3 0 9998 2 33053 25.5822 97.3911 0008052 217.7158 142.2816 15.22534923966502 SDO 1 36395U 10005A 25341.30525497 -.00000084 00000+0 00000+0 0 9993 2 36395 34.2504 89.2686 0001301 133.0229 222.0217 1.00269707 58135 CRYOSAT 2 1 36508U 10013A 25341.27715861 .00000425 00000+0 10482-3 0 9997 2 36508 92.0264 230.8476 0002252 93.6607 266.4857 14.51899420830236 X-SAT 1 37389U 11015C 25341.27907627 .00000302 00000+0 14585-3 0 9993 2 37389 98.3306 322.6944 0013919 181.7887 178.3246 14.25126016760343 GCOM-W1 (SHIZUKU) 1 38337U 12025A 25341.32647397 .00001345 00000+0 30843-3 0 9993 2 38337 98.2206 279.6046 0001513 71.2469 90.1571 14.57112814721092 NUSTAR 1 38358U 12031A 25341.33336806 .00010997 00000+0 67012-3 0 9995 2 38358 6.0274 30.7271 0008021 143.0109 146.6565 15.06300491 1303 NEOSSAT 1 39089U 13009D 25341.21749702 .00000422 00000+0 16064-3 0 9996 2 39089 98.4075 160.8835 0012125 98.0183 262.2380 14.35725868669198 BRITE-AUSTRIA 1 39091U 13009F 25341.24128162 .00000473 00000+0 17576-3 0 9998 2 39091 98.3889 160.5034 0011351 93.0622 267.1864 14.36431056669492 IRIS 1 39197U 13033A 25341.27629950 .00003368 00000+0 39703-3 0 9998 2 39197 97.9390 176.0790 0023676 224.8312 135.0990 14.85247128671883 HISAKI (SPRINT-A) 1 39253U 13049A 25341.27174898 .00000149 00000+0 11011-3 0 9990 2 39253 29.7193 115.6990 0136963 261.0516 97.4529 13.55520440605360 CASSIOPE 1 39265U 13055A 25341.27431376 .00062768 10287-6 84139-3 0 9998 2 39265 80.9255 297.4018 0344231 343.3469 15.6664 15.10818632638545 STSAT-3 1 39422U 13066G 25341.26049292 .00006778 00000+0 52985-3 0 9994 2 39422 97.5996 309.7480 0014575 332.8047 27.2412 15.01317951655396 SWARM B 1 39451U 13067A 25341.29048293 .00006074 00000+0 22837-3 0 9992 2 39451 87.7446 40.5101 0003316 88.2551 271.9077 15.26957044653946 SWARM A 1 39452U 13067B 25341.18934770 .00016761 00000+0 33937-3 0 9992 2 39452 87.3363 127.3074 0002282 88.3845 271.7675 15.46297086676539 SWARM C 1 39453U 13067C 25341.25396217 .00017038 00000+0 34497-3 0 9999 2 39453 87.3361 125.8689 0002278 88.7052 271.4467 15.46296975676501 BRITE-CA1 (TORONTO) 1 40020U 14033L 25340.93096666 .00002816 00000+0 43308-3 0 9993 2 40020 97.9492 108.7927 0079533 171.5565 188.7003 14.72181277613927 OCO 2 1 40059U 14035A 25341.22354887 .00001160 00000+0 26727-3 0 9999 2 40059 98.2209 280.2484 0000906 67.6482 292.4812 14.57152186608097 BRITE-PL2 (HEWELIUSZ) 1 40119U 14049B 25341.24045925 .00004363 00000+0 41794-3 0 9992 2 40119 97.8998 87.0779 0014842 31.3880 328.8223 14.93615398612788 MMS 1 1 40482U 15011A 25341.33336806 -.00000582 00000+0 00000+0 0 9997 2 40482 69.1891 351.5934 8505813 163.2819 169.7765 0.28346734 1362 MMS 2 1 40483U 15011B 25341.33336806 -.00000582 00000+0 00000+0 0 9998 2 40483 69.1866 351.5840 8507263 163.2985 169.7435 0.28346736 1362 MMS 3 1 40484U 15011C 25341.33336806 -.00000582 00000+0 00000+0 0 9999 2 40484 69.1911 351.6005 8507216 163.2943 169.7390 0.28346739 1363 MMS 4 1 40485U 15011D 25341.33336806 -.00000582 00000+0 00000+0 0 9990 2 40485 69.1871 351.5939 8508428 163.2812 169.7745 0.28346587 1359 ASTROSAT 1 40930U 15052A 25341.19863733 .00002990 00000+0 28550-3 0 9996 2 40930 5.9965 96.8059 0007941 177.4907 182.5261 14.81993764551294 DAMPE 1 41173U 15078A 25341.27631760 .00002623 00000+0 92416-4 0 9992 2 41173 97.4544 340.9085 0013355 43.2697 316.9590 15.30129348555192 PISAT 1 41784U 16059B 25341.30225459 .00002216 00000+0 38785-3 0 9994 2 41784 97.8157 345.1044 0030727 98.1288 262.3405 14.68474816491576 HXMT (HUIYAN) 1 42758U 17034A 25341.25710214 .00005912 00000+0 30882-3 0 9998 2 42758 43.0121 170.0516 0032254 8.1882 351.9486 15.16180249468508 FLYING LAPTOP 1 42831U 17042G 25341.26481076 .00005759 00000+0 46825-3 0 9994 2 42831 97.4220 140.1369 0015055 66.7155 293.5652 14.99852202457677 ZHANGHENG 1-01 (CSES-1) 1 43194U 18015C 25341.27871013 .00016334 00000+0 74148-3 0 9993 2 43194 97.6655 138.3598 0017820 225.1361 134.8427 15.20735504435470 SALSAT 1 46495U 20068K 25341.22116424 .00012855 00000+0 49942-3 0 9992 2 46495 97.8780 328.1960 0008671 252.6391 107.3898 15.26181604286048 IXPE 1 49954U 21121A 25341.33336806 .00016087 00000+0 95914-3 0 9997 2 49954 0.2313 326.1189 0007319 62.9111 88.6688 15.07878996 5584